| time (UTC) | temp C | wind direction | speed KPH | gust KPH | rain 1hr cm | rain 24hr cm | rain mn cm | humidity % | barometer mb |
| 20260906180526 | 30 | 150 | 3.2 | 8.0 | 0.00 | 0.00 | 0.00 | 36 | 1022.5 |
| 20260906175522 | 29 | 204 | 3.2 | 8.0 | 0.00 | 0.00 | 0.00 | 36 | 1022.7 |
| 20260906174520 | 28 | 102 | 1.6 | 6.4 | 0.00 | 0.00 | 0.00 | 37 | 1022.9 |
| 20260906173535 | 29 | 133 | 1.6 | 8.0 | 0.00 | 0.00 | 0.00 | 36 | 1023.0 |
| 20260906172530 | 28 | 134 | 1.6 | 8.0 | 0.00 | 0.00 | 0.00 | 36 | 1023.1 |
| 20260906171526 | 28 | 154 | 1.6 | 8.0 | 0.00 | 0.00 | 0.00 | 36 | 1023.2 |
| 20260906170543 | 29 | 73 | 0.0 | 3.2 | 0.00 | 0.00 | 0.00 | 34 | 1023.2 |
| 20260906165519 | 29 | 165 | 1.6 | 4.8 | 0.00 | 0.00 | 0.00 | 34 | 1023.2 |
| 20260906164535 | 28 | 142 | 1.6 | 6.4 | 0.00 | 0.00 | 0.00 | 34 | 1023.2 |
| 20260906163531 | 28 | 177 | 3.2 | 8.0 | 0.00 | 0.00 | 0.00 | 34 | 1023.2 |
| 20260906162547 | 28 | 171 | 1.6 | 4.8 | 0.00 | 0.00 | 0.00 | 34 | 1023.2 |
| 20260906161523 | 28 | 128 | 1.6 | 3.2 | 0.00 | 0.00 | 0.00 | 35 | 1023.2 |
| 20260906160519 | 28 | 121 | 1.6 | 4.8 | 0.00 | 0.00 | 0.00 | 35 | 1023.2 |
| 20260906155515 | 27 | 45 | 3.2 | 6.4 | 0.00 | 0.00 | 0.00 | 36 | 1023.1 |
| 20260906154532 | 27 | 62 | 1.6 | 3.2 | 0.00 | 0.00 | 0.00 | 36 | 1023.1 |
| 20260906153527 | 27 | 77 | 0.0 | 3.2 | 0.00 | 0.00 | 0.00 | 37 | 1023.0 |
| 20260906152544 | 26 | 59 | 1.6 | 3.2 | 0.00 | 0.00 | 0.00 | 38 | 1023.0 |
| 20260906151520 | 25 | 54 | 1.6 | 4.8 | 0.00 | 0.00 | 0.00 | 39 | 1023.0 |
| 20260906150516 | 25 | 19 | 1.6 | 4.8 | 0.00 | 0.00 | 0.00 | 41 | 1023.1 |
| 20260906145532 | 23 | 27 | 1.6 | 6.4 | 0.00 | 0.00 | 0.00 | 44 | 1023.1 |
| 20260906144528 | 22 | 25 | 1.6 | 4.8 | 0.00 | 0.00 | 0.00 | 47 | 1023.0 |
| 20260906143524 | 21 | 7 | 1.6 | 4.8 | 0.00 | 0.00 | 0.00 | 49 | 1023.1 |
| 20260906142520 | 20 | 18 | 1.6 | 4.8 | 0.00 | 0.00 | 0.00 | 50 | 1023.0 |
| 20260906141536 | 20 | 22 | 1.6 | 6.4 | 0.00 | 0.00 | 0.00 | 52 | 1022.8 |
| 20260906140533 | 18 | 15 | 1.6 | 4.8 | 0.00 | 0.00 | 0.00 | 60 | 1022.9 |
| 20260906135529 | 17 | 17 | 1.6 | 3.2 | 0.00 | 0.00 | 0.00 | 66 | 1023.0 |
| 20260906134525 | 16 | 18 | 0.0 | 1.6 | 0.00 | 0.00 | 0.00 | 71 | 1022.9 |
| 20260906133521 | 15 | 49 | 0.0 | 1.6 | 0.00 | 0.00 | 0.00 | 74 | 1022.8 |
| 20260906132517 | 15 | 0.0 | 0.0 | 0.00 | 0.00 | 0.00 | 73 | 1022.7 | |
| 20260906131554 | 14 | 36 | 0.0 | 1.6 | 0.00 | 0.00 | 0.00 | 76 | 1022.6 |
| 20260906130530 | 14 | 30 | 0.0 | 3.2 | 0.00 | 0.00 | 0.00 | 76 | 1022.6 |
| 20260906125546 | 14 | 0.0 | 0.0 | 0.00 | 0.00 | 0.00 | 76 | 1022.6 | |
| 20260906124543 | 14 | 353 | 0.0 | 3.2 | 0.00 | 0.00 | 0.00 | 76 | 1022.6 |
| 20260906123518 | 15 | 0.0 | 1.6 | 0.00 | 0.00 | 0.00 | 75 | 1022.6 | |
| 20260906122534 | 15 | 23 | 0.0 | 3.2 | 0.00 | 0.00 | 0.00 | 74 | 1022.6 |
| 20260906121530 | 15 | 64 | 0.0 | 3.2 | 0.00 | 0.00 | 0.00 | 71 | 1022.4 |
| 20260906120547 | 15 | 0.0 | 1.6 | 0.00 | 0.00 | 0.00 | 69 | 1022.4 | |
| 20260906115523 | 15 | 72 | 0.0 | 1.6 | 0.00 | 0.00 | 0.00 | 70 | 1022.4 |
| 20260906114539 | 16 | 0.0 | 1.6 | 0.00 | 0.00 | 0.00 | 69 | 1022.2 | |
| 20260906113515 | 15 | 0.0 | 0.0 | 0.00 | 0.00 | 0.00 | 71 | 1022.2 | |
| 20260906112531 | 16 | 0.0 | 0.0 | 0.00 | 0.00 | 0.00 | 73 | 1022.2 | |
| 20260906111528 | 16 | 339 | 0.0 | 3.2 | 0.00 | 0.00 | 0.00 | 73 | 1022.1 |
| 20260906110543 | 16 | 0.0 | 1.6 | 0.00 | 0.00 | 0.00 | 74 | 1022.0 | |
| 20260906105520 | 16 | 5 | 0.0 | 1.6 | 0.00 | 0.00 | 0.00 | 74 | 1021.9 |
| 20260906104516 | 16 | 163 | 0.0 | 1.6 | 0.00 | 0.00 | 0.00 | 74 | 1021.9 |
| 20260906103532 | 16 | 0.0 | 0.0 | 0.00 | 0.00 | 0.00 | 74 | 1021.9 | |
| 20260906102528 | 16 | 0.0 | 0.0 | 0.00 | 0.00 | 0.00 | 74 | 1022.0 | |
| 20260906101604 | 16 | 4 | 0.0 | 3.2 | 0.00 | 0.00 | 0.00 | 74 | 1022.2 |
| 20260906100521 | 16 | 0.0 | 0.0 | 0.00 | 0.00 | 0.00 | 76 | 1022.3 | |
| 20260906095537 | 16 | 5 | 0.0 | 1.6 | 0.00 | 0.00 | 0.00 | 76 | 1022.6 |
| 20260906094533 | 16 | 0.0 | 0.0 | 0.00 | 0.00 | 0.00 | 76 | 1022.5 | |
| 20260906093529 | 16 | 0.0 | 1.6 | 0.00 | 0.00 | 0.00 | 75 | 1022.3 | |
| 20260906092605 | 16 | 171 | 0.0 | 1.6 | 0.00 | 0.00 | 0.00 | 75 | 1022.3 |
| 20260906091521 | 16 | 356 | 0.0 | 3.2 | 0.00 | 0.00 | 0.00 | 74 | 1022.1 |
| 20260906090558 | 16 | 0.0 | 0.0 | 0.00 | 0.00 | 0.00 | 74 | 1022.2 | |
| 20260906090029 | 16 | 3 | 0.0 | 3.2 | 0.00 | 0.00 | 0.00 | 74 | 1022.1 |
| 20260906085025 | 16 | 360 | 1.6 | 3.2 | 0.00 | 0.00 | 0.00 | 74 | 1022.1 |
| 20260906084022 | 16 | 343 | 0.0 | 1.6 | 0.00 | 0.00 | 0.00 | 75 | 1022.1 |
| 20260906083018 | 16 | 0.0 | 1.6 | 0.00 | 0.00 | 0.00 | 74 | 1022.0 | |
| 20260906082054 | 16 | 3 | 0.0 | 3.2 | 0.00 | 0.00 | 0.00 | 74 | 1022.2 |
| 20260906081042 | 16 | 0.0 | 0.0 | 0.00 | 0.00 | 0.00 | 73 | 1022.2 | |
| 20260906080026 | 17 | 33 | 1.6 | 3.2 | 0.00 | 0.00 | 0.00 | 72 | 1022.1 |
| 20260906075022 | 17 | 0.0 | 1.6 | 0.00 | 0.00 | 0.00 | 71 | 1022.3 | |
| 20260906074018 | 17 | 2 | 0.0 | 1.6 | 0.00 | 0.00 | 0.00 | 70 | 1022.3 |
| 20260906073034 | 17 | 39 | 0.0 | 3.2 | 0.00 | 0.00 | 0.00 | 70 | 1022.5 |
| 20260906072029 | 17 | 35 | 1.6 | 4.8 | 0.00 | 0.00 | 0.00 | 68 | 1022.4 |
| 20260906071025 | 17 | 7 | 4.8 | 8.0 | 0.00 | 0.00 | 0.00 | 69 | 1022.6 |
| 20260906070021 | 17 | 6 | 3.2 | 8.0 | 0.00 | 0.00 | 0.00 | 69 | 1022.4 |
| 20260906065057 | 17 | 8 | 1.6 | 3.2 | 0.00 | 0.00 | 0.00 | 71 | 1022.4 |
| 20260906064033 | 17 | 1 | 0.0 | 1.6 | 0.00 | 0.00 | 0.00 | 72 | 1022.7 |
| 20260906063028 | 17 | 41 | 0.0 | 1.6 | 0.00 | 0.00 | 0.00 | 72 | 1022.6 |
| 20260906062024 | 17 | 0.0 | 1.6 | 0.00 | 0.00 | 0.00 | 71 | 1022.6 | |
| 20260906061020 | 18 | 3 | 1.6 | 3.2 | 0.00 | 0.00 | 0.00 | 70 | 1022.5 |
| 20260906060036 | 17 | 0.0 | 0.0 | 0.00 | 0.00 | 0.00 | 71 | 1022.3 | |
| 20260906055032 | 18 | 0.0 | 0.0 | 0.00 | 0.00 | 0.00 | 71 | 1022.2 | |
| 20260906054048 | 18 | 0.0 | 0.0 | 0.00 | 0.00 | 0.00 | 70 | 1022.1 | |
| 20260906053024 | 18 | 336 | 0.0 | 1.6 | 0.00 | 0.00 | 0.00 | 70 | 1022.0 |
| 20260906052021 | 18 | 0.0 | 0.0 | 0.00 | 0.00 | 0.00 | 69 | 1022.1 | |
| 20260906051017 | 18 | 0.0 | 1.6 | 0.00 | 0.00 | 0.00 | 68 | 1022.1 | |
| 20260906050033 | 19 | 0.0 | 0.0 | 0.00 | 0.00 | 0.00 | 66 | 1022.0 | |
| 20260906045029 | 19 | 41 | 0.0 | 1.6 | 0.00 | 0.00 | 0.00 | 65 | 1022.2 |
| 20260906044025 | 20 | 0.0 | 0.0 | 0.00 | 0.00 | 0.00 | 63 | 1022.3 | |
| 20260906043021 | 20 | 0.0 | 1.6 | 0.00 | 0.00 | 0.00 | 64 | 1022.3 | |
| 20260906042037 | 20 | 0.0 | 1.6 | 0.00 | 0.00 | 0.00 | 62 | 1022.4 | |
| 20260906041033 | 20 | 0.0 | 1.6 | 0.00 | 0.00 | 0.00 | 60 | 1022.2 | |
| 20260906040030 | 21 | 39 | 0.0 | 1.6 | 0.00 | 0.00 | 0.00 | 58 | 1022.3 |
| 20260906035025 | 21 | 0.0 | 0.0 | 0.00 | 0.00 | 0.00 | 56 | 1022.3 | |
| 20260906034101 | 21 | 0.0 | 0.0 | 0.00 | 0.00 | 0.00 | 53 | 1022.5 | |
| 20260906033018 | 22 | 0.0 | 1.6 | 0.00 | 0.00 | 0.00 | 52 | 1022.4 | |
| 20260906032034 | 22 | 331 | 1.6 | 3.2 | 0.00 | 0.00 | 0.00 | 52 | 1022.2 |
| 20260906031030 | 22 | 328 | 0.0 | 1.6 | 0.00 | 0.00 | 0.00 | 57 | 1022.1 |
| 20260906030026 | 23 | 0.0 | 1.6 | 0.00 | 0.00 | 0.00 | 56 | 1021.8 | |
| 20260906025022 | 22 | 134 | 1.6 | 6.4 | 0.00 | 0.00 | 0.00 | 56 | 1021.7 |
| 20260906024018 | 22 | 321 | 0.0 | 3.2 | 0.00 | 0.00 | 0.00 | 52 | 1021.6 |
| 20260906023034 | 22 | 238 | 0.0 | 3.2 | 0.00 | 0.00 | 0.00 | 51 | 1021.4 |
| 20260906022030 | 22 | 140 | 0.0 | 3.2 | 0.00 | 0.00 | 0.00 | 49 | 1021.2 |
| 20260906021026 | 22 | 0.0 | 0.0 | 0.00 | 0.00 | 0.00 | 46 | 1020.6 | |
| 20260906020022 | 23 | 341 | 0.0 | 1.6 | 0.00 | 0.00 | 0.00 | 45 | 1020.4 |
| 20260906015018 | 23 | 1 | 0.0 | 1.6 | 0.00 | 0.00 | 0.00 | 44 | 1020.4 |
| 20260906014035 | 24 | 0.0 | 0.0 | 0.00 | 0.00 | 0.00 | 44 | 1020.4 | |
| 20260906013030 | 25 | 335 | 0.0 | 1.6 | 0.00 | 0.00 | 0.00 | 43 | 1020.3 |
| 20260906012026 | 25 | 0.0 | 0.0 | 0.00 | 0.00 | 0.00 | 42 | 1020.3 | |
| 20260906011022 | 26 | 0.0 | 0.0 | 0.00 | 0.00 | 0.00 | 39 | 1020.4 | |
| 20260906010059 | 27 | 302 | 0.0 | 1.6 | 0.00 | 0.00 | 0.00 | 38 | 1020.4 |
| 20260906005055 | 27 | 0.0 | 0.0 | 0.00 | 0.00 | 0.00 | 36 | 1020.4 | |
| 20260906004031 | 28 | 0.0 | 0.0 | 0.00 | 0.00 | 0.00 | 36 | 1020.5 | |
| 20260906003026 | 28 | 0.0 | 0.0 | 0.00 | 0.00 | 0.00 | 34 | 1020.4 | |
| 20260906002043 | 28 | 0.0 | 0.0 | 0.00 | 0.00 | 0.00 | 33 | 1020.4 | |
| 20260906001018 | 28 | 325 | 0.0 | 3.2 | 0.00 | 0.00 | 0.00 | 33 | 1020.4 |
| 20260906000034 | 28 | 325 | 0.0 | 1.6 | 0.00 | 0.00 | 0.00 | 33 | 1020.5 |
| 20260905235031 | 28 | 325 | 0.0 | 3.2 | 0.00 | 0.00 | 0.00 | 32 | 1020.5 |
| 20260905234027 | 29 | 242 | 0.0 | 3.2 | 0.00 | 0.00 | 0.00 | 32 | 1020.4 |
| 20260905233023 | 28 | 289 | 0.0 | 3.2 | 0.00 | 0.00 | 0.00 | 31 | 1020.3 |
| 20260905232039 | 29 | 315 | 0.0 | 3.2 | 0.00 | 0.00 | 0.00 | 31 | 1020.3 |
| 20260905231015 | 29 | 0.0 | 1.6 | 0.00 | 0.00 | 0.00 | 31 | 1020.2 | |
| 20260905230031 | 29 | 9 | 1.6 | 6.4 | 0.00 | 0.00 | 0.00 | 30 | 1020.3 |
| 20260905225027 | 29 | 342 | 1.6 | 4.8 | 0.00 | 0.00 | 0.00 | 31 | 1020.4 |
| 20260905224043 | 28 | 354 | 1.6 | 3.2 | 0.00 | 0.00 | 0.00 | 30 | 1020.6 |
| 20260905223019 | 29 | 351 | 1.6 | 4.8 | 0.00 | 0.00 | 0.00 | 30 | 1020.6 |
| 20260905222015 | 30 | 358 | 1.6 | 6.4 | 0.00 | 0.00 | 0.00 | 29 | 1020.5 |
| 20260905221031 | 28 | 12 | 1.6 | 4.8 | 0.00 | 0.00 | 0.00 | 31 | 1020.7 |
| 20260905220027 | 28 | 353 | 1.6 | 4.8 | 0.00 | 0.00 | 0.00 | 32 | 1020.7 |